Flag for Norway Weather past 2 weeks in Florø, Norway

Now
66 °F

Partly sunny.


Feels Like: 66 °F
Forecast: 53 / 56 °F
Wind: 13 mph from West

Location: Floro

Current Time: Jul 5, 2015 at 2:55:20 PM

Latest Report: Jul 5, 2015 at 1:50 PM


Visibility: N/A

Pressure: 30.01 "Hg

Humidity: 68%

Dew point: 55 °F

Location of FlorøLocation

Historic Weather in Florø — Graph

°F

Florø temperature yesterday

Maximum temperature yesterday: 70 °F (at 3:50 PM)
Minimum temperature yesterday: 54 °F (at 12:50 AM)
Average temperature yesterday: 62 °F

Past Weeks' High & Low Weather Summary

 TemperatureHumidityPressure
High79 °F (Jul 2, 3:50 PM)100% (Jun 29, 8:20 AM)30.30 "Hg (Jun 29, 8:20 AM)
Low46 °F (Jun 21, 1:50 AM)32% (Jul 2, 4:50 PM)29.71 "Hg (Jun 22, 5:20 PM)
Average57 °F77%29.99 "Hg
* Reported Jun 20 1:20 PM — Jul 5 1:20 PM, Florø, Weather by CustomWeather, © 2015

Note: Actual official high and low records may vary slightly from our data, if they occured in-between our weather recording intervals... More about our weather records

Advertising

Florø weather history for previous 24 hours

 ConditionsComfort  
Time TempWeatherWind HumidityBarometerVisibility
1:20 PM
Sun, Jul 5
70 °FScattered clouds.10 mph60%30.01 "HgN/A
12:50 PM70 °FBroken clouds.3 mph60%30.01 "HgN/A
12:20 PM68 °FScattered clouds.3 mph60%30.01 "HgN/A
11:50 AM70 °FBroken clouds.6 mph64%30.01 "HgN/A
11:20 AM68 °FBroken clouds.5 mph69%30.01 "HgN/A
10:50 AM68 °FPartly sunny.2 mph69%30.01 "HgN/A
10:20 AM68 °FClear.5 mph69%30.01 "HgN/A
9:50 AM66 °FClear.5 mph73%30.01 "HgN/A
9:20 AM68 °FClear.2 mph60%30.01 "HgN/A
8:50 AM64 °FClear.3 mph73%30.01 "HgN/A
8:20 AM63 °FClear.5 mph83%30.01 "HgN/A
7:50 AM63 °FClear.7 mph77%30.01 "HgN/A
7:20 AM63 °FClear.6 mph83%30.01 "HgN/A
6:50 AM63 °FClear.3 mph88%30.01 "HgN/A
6:20 AM61 °FClear.3 mph94%30.01 "HgN/A
5:50 AM59 °FCool.2 mph94%30.01 "HgN/A
5:20 AM57 °FCool.5 mph94%30.04 "HgN/A
4:50 AM57 °FCool.3 mph94%30.04 "HgN/A
4:20 AM57 °FClear.3 mph94%30.04 "HgN/A
3:50 AM59 °FClear.5 mph88%30.04 "HgN/A
3:20 AM57 °FClear.2 mph94%30.04 "HgN/A
2:50 AM59 °FClear.3 mph88%30.04 "HgN/A
2:20 AM59 °FClear.3 mph88%30.07 "HgN/A
1:50 AM61 °FPassing clouds.6 mph83%30.07 "HgN/A
1:20 AM61 °FClear.6 mph83%30.07 "HgN/A
12:50 AM61 °FPassing clouds.6 mph83%30.07 "HgN/A
12:20 AM61 °FMostly cloudy.2 mph83%30.07 "HgN/A
11:50 PM
Sat, Jul 4
61 °FMore clouds than sun.6 mph83%30.07 "HgN/A
11:20 PM61 °FMostly cloudy.5 mph83%30.07 "HgN/A
10:50 PM63 °FClear.5 mph77%30.04 "HgN/A
10:20 PM64 °FClear.8 mph73%30.04 "HgN/A
9:50 PM64 °FMild.9 mph73%30.04 "HgN/A
9:20 PM64 °FMild.9 mph73%30.04 "HgN/A
8:50 PM66 °FMild.7 mph68%30.04 "HgN/A
8:20 PM66 °FMild.6 mph68%30.04 "HgN/A
7:50 PM68 °FMild.7 mph64%30.04 "HgN/A
7:20 PM68 °FMild.10 mph64%30.07 "HgN/A
6:50 PM68 °FMild.10 mph69%30.07 "HgN/A
6:20 PM66 °FClear.14 mph68%30.07 "HgN/A
5:50 PM66 °FMild.14 mph68%30.07 "HgN/A
5:20 PM68 °FSunny.15 mph64%30.07 "Hg10 mi
4:50 PM70 °FSunny.14 mph60%30.07 "Hg10 mi
4:20 PM68 °FSunny.12 mph64%30.07 "Hg10 mi
3:50 PM70 °FSunny.12 mph60%30.09 "Hg10 mi
3:20 PM66 °FSunny.14 mph68%30.09 "Hg10 mi
2:50 PM66 °FSunny.14 mph68%30.12 "Hg10 mi
2:20 PM66 °FPassing clouds.13 mph68%30.12 "HgN/A
Weather by CustomWeather, © 2015

See weather overviewHow to use our weather pages